Regional Weather Roundup
Issued by NWS Burlington, VT

Home | Current Version | Previous Version | Text Only | Print | Product List | Glossary On
Versions: 1 2 3 4 5 6 7 8 9 10 11 12 13 14 15 16 17 18 19 20 21 22 23 24 25 26 27 28 29 30 31 32 33 34 35 36 37 38 39 40 41 42 43 44 45 46 47 48 49 50
000
ASUS41 KBTV 301530
RWRBTV
VERMONT REGIONAL WEATHER ROUNDUP
NATIONAL WEATHER SERVICE BURLINGTON VT
1100 AM EDT TUE SEP 30 2014

NOTE: "FAIR" INDICATES FEW OR NO CLOUDS BELOW 12,000 FEET WITH NO
SIGNIFICANT WEATHER AND/OR OBSTRUCTIONS TO VISIBILITY.

* THESE REPORTS ARE NOT UNDER NWS QUALITY CONTROL AND/OR DO NOT
  REPORT WEATHER SUCH AS PRECIPITATION AND FOG.

VTZ001>019-301600-
_____VERMONT_____


CITY           SKY/WX    TMP DP  RH WIND       PRES   REMARKS
BURLINGTON     PTSUNNY   65  55  70 S6        29.99S
MONTPELIER     CLOUDY    57  54  89 VRB6      30.06F
MORRISVILLE    CLOUDY    61  53  75 VRB3      30.03S
ST. JOHNSBURY*   N/A     59  53  80 MISG      30.01F
MIDDLEBURY*    FAIR      70  57  64 S5        29.97F
RUTLAND*       CLOUDY    61  54  77 SE9       30.00F
SPRINGFIELD    CLOUDY    60  54  80 W6        30.03F
HIGHGATE*      FAIR      60  51  72 CALM      30.00S
NEWPORT*       CLOUDY   N/A N/A N/A SW7       30.03R
BENNINGTON     CLOUDY    64  54  69 E6        30.00S
SUTTON*          N/A     57 N/A N/A MISG        N/A
GALLUP MILLS*    N/A     57 N/A N/A MISG        N/A
UNION VILLAGE*   N/A     61 N/A N/A MISG        N/A
MT. MANSFIELD*   N/A     55 N/A N/A NW5         N/A

_____LAKE CHAMPLAIN_____


CITY           SKY/WX    TMP DP  RH WIND       PRES   REMARKS
BURTON ISLAND*   N/A     57  52  82 NW1         N/A
COLCHESTER RF*   N/A     54  54 100 N7          N/A
DIAMOND ISL*     N/A     59  54  82 NW2         N/A

$$

NYZ007-026>031-035-052-083-301600-
_____NORTHERN NEW YORK_____


CITY           SKY/WX    TMP DP  RH WIND       PRES   REMARKS
PLATTSBURGH    MOSUNNY   58  52  80 E3        29.99S
SARANAC LAKE   MOSUNNY   65  54  67 CALM      29.96F
MASSENA        CLOUDY    53  50  89 NE9       30.00S
OGDENSBURG*    CLOUDY    55  52  88 NE9       29.97S
POTSDAM*       SUNNY     55  52  88 NE8       29.98S
PARISHVILLE*     N/A     66 N/A N/A SE5         N/A
WATERTOWN      MOSUNNY   63  52  67 NE8       29.93S
FT DRUM        MOSUNNY   67  56  69 N7        29.93S
ALBANY         CLOUDY    67  57  70 E5        29.98F
GLENS FALLS    CLOUDY    62  56  80 CALM      29.98F

$$
NHZ002-005-011-301600-
_____NEW HAMPSHIRE_____


CITY           SKY/WX    TMP DP  RH WIND       PRES   REMARKS
LEBANON        CLOUDY    61  53  75 CALM      30.02F
KEENE          CLOUDY    61  48  63 NE3       30.03S
MT WASHINGTON  PTSUNNY   48  32  53 W5          N/A
PLYMOUTH       CLOUDY    59  55  86 CALM      30.04F
WHITEFIELD     PTSUNNY   62  52  69 CALM      30.02F

$$

_____REGIONAL QUEBEC LOCATIONS_____


CITY           SKY/WX    TMP DP  RH WIND       PRES   REMARKS
MONTREAL       CLOUDY    54  48  82 N12       30.01F
SHERBROOKE     PTSUNNY   63  54  72 VRB5      30.02F

_____REGIONAL ONTARIO LOCATIONS_____


CITY           SKY/WX    TMP DP  RH WIND       PRES   REMARKS
OTTAWA         CLOUDY    52  48  87 NE9       30.01S

______KEY______
VSB  - VISIBILITY IN MILES
WCI  - WIND CHILL INDEX
HX   - HEAT INDEX
$$
NNNN



USA.gov is the U.S. government's official web portal to all federal, state and local government web resources and services.